Baltimore Martin, MD

10:57 AM EDT on July 25, 2017 (GMT -0400)
Martin State

Weather History for KMTN - June, 2013

Change the Weather History Date:

Thursday, June 27, 2013

  Actual Average Record
Temperature  
Mean Temperature 78 °F -  
Max Temperature 86 °F 81 °F 98 °F (2010)
Min Temperature 71 °F 66 °F 59 °F (2004)
Cooling Degree Days 14    
Growing Degree Days 28 (Base 50)    
Moisture  
Dew Point 73 °F    
Average Humidity 91    
Maximum Humidity 100    
Minimum Humidity 70    
Precipitation  
Precipitation 0.01 in - - ()
Sea Level Pressure  
Sea Level Pressure 29.75 in    
Wind  
Wind Speed 3 mph (South)    
Max Wind Speed 18 mph    
Max Gust Speed 24 mph    
Visibility 9 miles    
Events Rain , Thunderstorm    
Averages and records for this station are not official NWS values.
T = Trace of Precipitation, MM = Missing Value Source: NWS Daily Summary

Daily Weather History Graph

Daily Weather History Graph

Search for Another Location

Airport or City:

Trip Planner

Search our weather history database for the weather conditions in past years. The results will help you decide how hot, cold, wet, or windy it might be!

Date:

Astronomy

Jun. 27, 2013 Rise Set
Actual Time 5:41 AM EDT 8:36 PM EDT
Civil Twilight 5:08 AM EDT 9:08 PM EDT
Nautical Twilight 4:27 AM EDT 9:49 PM EDT
Astronomical Twilight 3:40 AM EDT 10:36 PM EDT
Moon 11:34 PM EDT (6/27) 10:37 AM EDT (6/27)
Length of Visible Light 16h 00m
Length of Day
14h 55m
Waning Gibbous, 76% of the Moon is Illuminated
Jun 27
Waning Gibbous
Jun 30
Last Quarter
Jul 8
New
Jul 15
First Quarter
Jul 22
Full

Hourly Weather History & Observations

Time (EDT) Temp. Heat Index Dew Point Humidity Pressure Visibility Wind Dir Wind Speed Gust Speed Precip Events Conditions
12:09 AM 73.4 °F - 73.4 °F 100% 29.84 in 10.0 mi Calm Calm - N/A   Scattered Clouds
12:30 AM 73.4 °F - 73.4 °F 100% 29.84 in 10.0 mi Calm Calm - N/A   Scattered Clouds
12:51 AM 73.4 °F - 73.4 °F 100% 29.84 in 10.0 mi Calm Calm - N/A   Scattered Clouds
1:09 AM 73.4 °F - 71.6 °F 94% 29.84 in 10.0 mi Calm Calm - N/A   Clear
1:30 AM 73.4 °F - 73.4 °F 100% 29.82 in 7.0 mi Calm Calm - N/A   Clear
1:51 AM 73.4 °F - 71.6 °F 94% 29.82 in 4.0 mi Calm Calm - N/A   Clear
2:09 AM 73.4 °F - 73.4 °F 100% 29.81 in 7.0 mi Calm Calm - N/A   Clear
2:30 AM 73.4 °F - 71.6 °F 94% 29.81 in 10.0 mi Calm Calm - N/A   Clear
2:51 AM 73.4 °F - 73.4 °F 100% 29.81 in 10.0 mi WSW 3.5 mph - N/A   Clear
3:09 AM 73.4 °F - 71.6 °F 94% 29.81 in 10.0 mi WSW 3.5 mph - N/A   Clear
3:30 AM 73.4 °F - 71.6 °F 94% 29.81 in 10.0 mi Calm Calm - N/A   Clear
3:51 AM 73.4 °F - 71.6 °F 94% 29.80 in 10.0 mi Calm Calm - N/A   Clear
4:09 AM 73.4 °F - 71.6 °F 94% 29.81 in 7.0 mi Calm Calm - N/A   Clear
4:30 AM 71.6 °F - 71.6 °F 100% 29.80 in 7.0 mi Calm Calm - N/A   Clear
4:51 AM 71.6 °F - 71.6 °F 100% 29.81 in 10.0 mi Calm Calm - N/A   Clear
5:09 AM 71.6 °F - 71.6 °F 100% 29.81 in 10.0 mi SSE 4.6 mph - N/A   Clear
5:30 AM 73.4 °F - 71.6 °F 94% 29.81 in 7.0 mi SE 4.6 mph - N/A   Clear
5:50 AM 73.4 °F - 73.4 °F 100% 29.82 in 7.0 mi South 3.5 mph - N/A   Mostly Cloudy
6:45 AM 75.2 °F - 73.4 °F 94% 29.82 in 10.0 mi Calm Calm - N/A   Partly Cloudy
7:50 AM 75.2 °F - 73.4 °F 94% 29.81 in 10.0 mi SSE 3.5 mph - N/A   Mostly Cloudy
8:55 AM 77.0 °F - 73.4 °F 89% 29.80 in 10.0 mi Calm Calm - N/A   Mostly Cloudy
9:55 AM 78.8 °F - 73.4 °F 83% 29.79 in 10.0 mi SE 9.2 mph - N/A   Mostly Cloudy
10:45 AM 80.6 °F 86.2 °F 75.2 °F 84% 29.78 in 10.0 mi SE 8.1 mph - N/A   Mostly Cloudy
11:45 AM 80.6 °F 86.2 °F 75.2 °F 84% 29.76 in 10.0 mi ESE 8.1 mph - N/A   Mostly Cloudy
12:55 PM 82.4 °F 89.5 °F 75.2 °F 79% 29.73 in 10.0 mi ESE 9.2 mph - N/A   Mostly Cloudy
1:45 PM 84.2 °F 92.3 °F 75.2 °F 74% 29.70 in 10.0 mi SSE 10.4 mph - N/A   Mostly Cloudy
2:45 PM 86.0 °F 95.1 °F 75.2 °F 70% 29.66 in 10.0 mi SSE 12.7 mph - N/A   Mostly Cloudy
3:45 PM 82.4 °F 89.5 °F 75.2 °F 79% 29.65 in 7.0 mi SSE 18.4 mph 24.2 mph N/A Thunderstorm Mostly Cloudy
4:55 PM 77.0 °F - 73.4 °F 89% 29.61 in 7.0 mi SW 11.5 mph 20.7 mph N/A   Mostly Cloudy
5:55 PM 77.0 °F - 73.4 °F 89% 29.62 in 7.0 mi SSW 9.2 mph - N/A   Mostly Cloudy
6:50 PM 78.8 °F - 73.4 °F 83% 29.62 in 7.0 mi SSW 6.9 mph - N/A   Mostly Cloudy
7:55 PM 80.6 °F 85.4 °F 73.4 °F 79% 29.63 in 7.0 mi SW 6.9 mph - N/A   Scattered Clouds
8:45 PM 78.8 °F - 73.4 °F 83% 29.64 in 7.0 mi SSW 9.2 mph - N/A   Scattered Clouds
10:12 PM 77.0 °F - 73.4 °F 89% 29.66 in 10.0 mi South 8.1 mph - N/A   Mostly Cloudy
10:33 PM 77.0 °F - 73.4 °F 89% 29.66 in 10.0 mi South 10.4 mph 17.3 mph 0.01 in Rain Rain
10:51 PM 75.2 °F - 71.6 °F 89% 29.65 in 10.0 mi South 9.2 mph - 0.01 in   Scattered Clouds
11:12 PM 75.2 °F - 73.4 °F 94% 29.64 in 10.0 mi South 4.6 mph - N/A   Clear
11:33 PM 75.2 °F - 71.6 °F 89% 29.64 in 10.0 mi South 6.9 mph - N/A   Clear
11:54 PM 75.2 °F - 71.6 °F 89% 29.64 in 10.0 mi South 4.6 mph - N/A   Clear